Location: Unspecified
(0.0000°N, 0.0000°E)
Time: 14:05:44
(UTC+02:00)

Cosmos 2228 - Visible Passes

Search period start: 01 October 2016 00:00
Search period end: 11 October 2016 00:00
Orbit: 592 x 619 km, 82.5° (Epoch: 01 October)

Date Brightness Start Highest point End Pass type
(mag) Time Alt. Az. Time Alt. Az. Time Alt. Az.
01 Oct 3.2 06:20:02 10° N 06:24:19 70° E 06:28:36 10° S visible
02 Oct 3.0 06:33:09 10° NNW 06:37:23 55° W 06:41:35 10° S visible
03 Oct 6.2 05:12:34 10° ENE 05:13:09 10° E 05:13:44 10° E visible
03 Oct 3.9 06:49:03 23° WNW 06:50:26 27° W 06:54:05 10° SSW visible
04 Oct 5.6 05:27:25 18° ESE 05:27:25 18° ESE 05:29:26 10° SE visible
04 Oct 4.8 07:04:25 13° WSW 07:04:25 13° WSW 07:05:42 10° SW visible
05 Oct 5.3 05:42:09 17° SSE 05:42:09 17° SSE 05:43:19 10° SSE visible
06 Oct 5.6 05:56:30 11° S 05:56:30 11° S 05:56:37 10° S visible
